[[{"header":{"parameterUnit":"m.s-1","parameterCategory":1,"la1":30.2991,"la2":30.254,"lo1":-89.0895,"lo2":-89.0444,"dy":0.0017,"dx":0.0017,"nx":28,"ny":28,"refTime":"2024-10-10T03:00:00:Z","depth":0,"parameterNumber":2,"parameterNumberName":"U-component_of_WINDS"},"data":[0,0,0,0,0,0,0,0,0,0,0,0,0,0,0,0,0,0,0,0,0,0,0,0,0,0,0,0,0,0,0,0,0,0,0,0,0,0,0,0,0,0,0,0,0,0,0,0,0,0,0,0,0,0,0,0,0,0,-0.8177,-0.8177,0,-0.8194,-0.8195,-0.8195,-0.8191,-0.8191,-0.819,-0.819,-0.8209,-0.8209,-0.821,0,0,0,0,0,0,0,0,0,0,0,0,0,-0.8139,-0.814,-0.8177,-0.8177,-0.8177,-0.8194,-0.8195,-0.8195,-0.8191,-0.8191,-0.819,-0.819,-0.8208,-0.8209,-0.821,0,0,0,0,0,0,0,0,0,0,0,0,0,-0.8156,-0.814,-0.8177,-0.8177,-0.8178,-0.8194,-0.8195,-0.8195,-0.8191,-0.8191,-0.819,-0.819,-0.8208,-0.8209,-0.821,-0.8227,0,0,-0.8214,-0.8214,0,0,0,0,0,0,0,0,-0.8155,-0.8157,-0.8177,-0.8177,-0.8178,-0.819,-0.8188,-0.8206,-0.8191,-0.8186,-0.819,-0.819,-0.8203,-0.8204,-0.8209,-0.8228,-0.8229,-0.8214,-0.8215,-0.8215,-0.8216,0,0,0,0,0,0,0,-0.8154,-0.8157,-0.8184,-0.8177,-0.8178,-0.8177,-0.8178,-0.8191,-0.8197,-0.8187,-0.8186,-0.8188,-0.8203,-0.8208,-0.8209,-0.8229,-0.8214,-0.8215,-0.8216,-0.8216,-0.8263,-0.8264,0,0,0,0,0,0,-0.8152,-0.8156,-0.8183,-0.8184,-0.8165,-0.8178,-0.818,-0.8187,-0.8197,-0.8198,-0.8189,-0.8188,-0.8206,-0.8208,-0.821,-0.8231,-0.8215,-0.8216,-0.8217,-0.8263,-0.8263,-0.8264,0,0,0,0,0,0,-0.8152,-0.8155,-0.8182,-0.817,-0.8173,-0.8179,-0.8186,-0.8187,-0.8192,-0.8199,-0.82,-0.8193,-0.8206,-0.8208,-0.8223,-0.8231,-0.8217,-0.8218,-0.8262,-0.8263,-0.8264,-0.8272,0,0,0,0,0,0,-0.8151,-0.8155,-0.8161,-0.817,-0.8174,-0.8195,-0.8187,-0.8188,-0.8194,-0.8193,-0.8202,-0.8204,-0.8205,-0.8221,-0.8224,-0.8232,-0.8219,-0.8261,-0.8262,-0.8263,-0.8271,-0.8273,-0.8275,0,0,0,0,0,-0.8149,-0.8163,-0.8162,-0.8165,-0.8182,-0.8196,-0.8198,-0.82,-0.8195,-0.8201,-0.8205,-0.8203,-0.8229,-0.8223,-0.8226,-0.8235,-0.8261,-0.8262,-0.8263,-0.827,-0.8273,-0.8275,0,0,0,0,0,0,-0.8156,-0.8164,-0.8163,-0.818,-0.8187,-0.8195,-0.8204,-0.8202,-0.8211,-0.821,-0.8212,-0.8214,-0.8229,-0.8233,-0.8226,-0.8252,-0.8244,-0.8246,-0.8249,-0.8251,-0.8253,-0.8252,-0.822,0,0,0,0,0,-0.8159,-0.8169,-0.8176,-0.8191,-0.8194,-0.8198,-0.8204,-0.8205,-0.8212,-0.8216,-0.8221,-0.8228,-0.8238,-0.8245,-0.8254,-0.8271,-0.8273,-0.8279,-0.8281,-0.8282,-0.8284,-0.8293,-0.8296,-0.8268,-0.8268,-0.8268,0,0,-0.8166,-0.8172,-0.8179,-0.8192,-0.8198,-0.8208,-0.8201,-0.8213,-0.822,-0.8217,-0.8232,-0.8236,-0.8244,-0.826,-0.8267,-0.8264,-0.8292,-0.8284,-0.8285,-0.8286,-0.8295,-0.8297,-0.83,-0.8269,-0.8269,-0.8268,0,0,-0.8185,-0.819,-0.8203,-0.8209,-0.8217,-0.822,-0.8222,-0.8231,-0.8233,-0.8247,-0.8245,-0.8254,-0.8271,-0.8277,-0.8282,-0.8302,-0.83,-0.8305,-0.8315,-0.8324,-0.8326,-0.8328,-0.8335,-0.8338,-0.8307,-0.8307,-0.8307,0,-0.8193,-0.8209,-0.821,-0.8221,-0.8227,-0.8224,-0.8237,-0.8242,-0.8254,-0.8258,-0.8253,-0.8274,-0.828,-0.8297,-0.8302,-0.8306,-0.8309,-0.8304,-0.8326,-0.8328,-0.8329,-0.8336,-0.8339,-0.8307,-0.8307,-0.8307,-0.8307,0,-0.8218,-0.8229,-0.8238,-0.8249,-0.8256,-0.8268,-0.827,-0.8277,-0.8276,-0.8279,-0.8294,-0.83,-0.831,-0.8314,-0.8314,-0.8331,-0.8329,-0.8325,-0.8318,-0.8333,-0.8339,-0.8342,-0.8308,-0.8308,-0.8308,-0.8307,0,0,-0.8243,-0.8253,-0.8256,-0.8261,-0.827,-0.8278,-0.8289,-0.83,-0.8305,-0.8313,-0.8322,-0.8336,-0.8333,-0.8339,-0.8339,-0.8347,-0.8362,-0.8342,-0.8342,-0.8346,-0.8381,-0.8385,-0.8388,-0.836,-0.8361,-0.8361,-0.8381,0,-0.8263,-0.8283,-0.8284,-0.8303,-0.8313,-0.831,-0.832,-0.8326,-0.8328,-0.8337,-0.834,-0.835,-0.8344,-0.8348,-0.8355,-0.8359,-0.8369,-0.8357,-0.837,-0.837,-0.8369,-0.8391,-0.8395,-0.8413,-0.8383,-0.8384,-0.8384,0,-0.8289,-0.8297,-0.8317,-0.8323,-0.8328,-0.8337,-0.8346,-0.8354,-0.8361,-0.8362,-0.8368,-0.8367,-0.8378,-0.837,-0.8386,-0.8378,-0.8383,-0.8385,-0.8386,-0.8388,-0.8379,-0.8394,-0.8419,-0.8422,-0.8388,-0.8388,-0.8387,0,-0.8305,-0.8321,-0.8335,-0.8339,-0.8347,-0.8353,-0.8357,-0.8363,-0.8369,-0.8376,-0.838,-0.8389,-0.8394,-0.8401,-0.8402,-0.8396,-0.8418,-0.841,-0.8419,-0.8419,-0.8425,-0.8425,-0.8452,-0.8427,-0.8427,-0.8427,-0.8427,0,-0.8328,-0.834,-0.8342,-0.8351,-0.8364,-0.8364,-0.8378,-0.8381,-0.8386,-0.8395,-0.8393,-0.8401,-0.8402,-0.841,-0.8411,-0.8424,-0.8426,-0.8428,-0.8428,-0.8429,-0.8428,-0.8433,-0.8432,-0.8428,-0.8428,-0.8427,-0.8427,0,-0.8349,-0.8351,-0.8366,-0.8372,-0.8373,-0.8383,-0.8388,-0.8396,-0.8398,-0.8409,-0.8412,-0.8415,-0.8425,-0.8426,-0.8438,-0.8439,-0.8454,-0.8453,-0.8452,-0.8452,-0.8462,-0.8461,-0.8493,-0.8497,-0.8469,-0.847,-0.847,0,-0.8364,-0.8373,-0.838,-0.8386,-0.839,-0.8399,-0.8405,-0.8405,-0.8411,-0.8419,-0.8426,-0.8435,-0.8443,-0.8459,-0.8462,-0.8471,-0.847,-0.848,-0.8471,-0.8471,-0.8471,-0.847,-0.8471,-0.8482,-0.8483,-0.8483,-0.8483,0,-0.839,-0.839,-0.8399,-0.8407,-0.8414,-0.8421,-0.8427,-0.8432,-0.8433,-0.844,-0.845,-0.8455,-0.8467,-0.8476,-0.8485,-0.8488,-0.8486,-0.8486,-0.8489,-0.849,-0.8489,-0.849,-0.8458,-0.8485,-0.8485,-0.8485,-0.8485,-0.8485,-0.8409,-0.8417,-0.8423,-0.8432,-0.8437,-0.8443,-0.845,-0.8453,-0.8461,-0.8471,-0.847,-0.8481,-0.8486,-0.8498,-0.8501,-0.851,-0.8506,-0.851,-0.8512,-0.8513,-0.8514,-0.8487,-0.8511,-0.8511,-0.8511,-0.8511,-0.8511,0,-0.8435,-0.8439,-0.8447,-0.8456,-0.8463,-0.8459,-0.8466,-0.8472,-0.8482,-0.8487,-0.8495,-0.8506,-0.8515,-0.8518,-0.8527,-0.8533,-0.8532,-0.8535,-0.8535,-0.8536,-0.8516,-0.8513,-0.8536,-0.8536,-0.8536,-0.8536,-0.8536,-0.8536,-0.845,-0.8463,-0.8464,-0.848,-0.8483,-0.8494,-0.8498,-0.8503,-0.8507,-0.852,-0.8527,-0.8529,-0.8533,-0.8542,-0.855,-0.8551,-0.8554,-0.8558,-0.8559,-0.854,-0.8538,-0.8535,-0.8532,-0.8559,-0.8559,-0.8578,-0.8578,-0.8578]},{"header":{"parameterUnit":"m.s-1","parameterCategory":1,"la1":30.2991,"la2":30.254,"lo1":-89.0895,"lo2":-89.0444,"dy":0.0017,"dx":0.0017,"nx":28,"ny":28,"refTime":"2024-10-10T03:00:00:Z","depth":0,"parameterNumber":3,"parameterNumberName":"V-component_of_WINDS"},"data":[0,0,0,0,0,0,0,0,0,0,0,0,0,0,0,0,0,0,0,0,0,0,0,0,0,0,0,0,0,0,0,0,0,0,0,0,0,0,0,0,0,0,0,0,0,0,0,0,0,0,0,0,0,0,0,0,0,0,-4.528,-4.5281,0,-4.5332,-4.5332,-4.5333,-4.5287,-4.5285,-4.5283,-4.5281,-4.5329,-4.5332,-4.5335,0,0,0,0,0,0,0,0,0,0,0,0,0,-4.5138,-4.5141,-4.528,-4.5281,-4.5281,-4.5331,-4.5332,-4.5333,-4.5287,-4.5285,-4.5283,-4.5281,-4.5328,-4.5332,-4.5336,0,0,0,0,0,0,0,0,0,0,0,0,0,-4.5196,-4.5142,-4.528,-4.5265,-4.5264,-4.5331,-4.5332,-4.5333,-4.5288,-4.5285,-4.5282,-4.528,-4.5327,-4.5332,-4.5336,-4.5419,0,0,-4.535,-4.5352,0,0,0,0,0,0,0,0,-4.5193,-4.5201,-4.5266,-4.5266,-4.5265,-4.53,-4.53,-4.5362,-4.5288,-4.5279,-4.5281,-4.5278,-4.5322,-4.5326,-4.5342,-4.5422,-4.5424,-4.535,-4.5353,-4.5355,-4.5356,0,0,0,0,0,0,0,-4.5189,-4.5199,-4.53,-4.5267,-4.5267,-4.5254,-4.5259,-4.5311,-4.5315,-4.5279,-4.5276,-4.5283,-4.5321,-4.5338,-4.5343,-4.5424,-4.535,-4.5354,-4.5357,-4.5359,-4.5576,-4.5579,0,0,0,0,0,0,-4.5187,-4.5196,-4.5299,-4.5302,-4.5222,-4.5259,-4.5265,-4.5292,-4.5314,-4.5315,-4.5285,-4.5281,-4.5331,-4.5337,-4.5344,-4.5445,-4.5355,-4.5359,-4.5362,-4.5573,-4.5577,-4.558,0,0,0,0,0,0,-4.5184,-4.5197,-4.5297,-4.5248,-4.526,-4.5264,-4.5295,-4.5294,-4.5311,-4.5319,-4.5319,-4.5302,-4.5329,-4.5338,-4.5402,-4.5446,-4.5361,-4.5365,-4.557,-4.5575,-4.5579,-4.5645,0,0,0,0,0,0,-4.518,-4.5196,-4.5229,-4.5249,-4.5263,-4.5355,-4.5298,-4.5297,-4.532,-4.5314,-4.5335,-4.5336,-4.5328,-4.5395,-4.5406,-4.545,-4.5369,-4.5566,-4.5572,-4.5577,-4.5639,-4.5652,-4.5662,0,0,0,0,0,-4.5175,-4.5244,-4.523,-4.5243,-4.5304,-4.5357,-4.5365,-4.5356,-4.5323,-4.5356,-4.5361,-4.5335,-4.5439,-4.5402,-4.5414,-4.546,-4.5563,-4.557,-4.5577,-4.5634,-4.5649,-4.5662,0,0,0,0,0,0,-4.5226,-4.5246,-4.5232,-4.5309,-4.5332,-4.5349,-4.539,-4.5372,-4.5403,-4.5397,-4.5383,-4.5388,-4.5456,-4.5464,-4.5423,-4.5543,-4.5496,-4.5505,-4.5535,-4.5549,-4.5561,-4.5558,-4.5372,0,0,0,0,0,-4.5247,-4.529,-4.5304,-4.5371,-4.5384,-4.5385,-4.5408,-4.54,-4.5422,-4.5431,-4.5441,-4.5462,-4.55,-4.5525,-4.556,-4.564,-4.5644,-4.5678,-4.5689,-4.5699,-4.5707,-4.5751,-4.5767,-4.5603,-4.5603,-4.5603,0,0,-4.5289,-4.5305,-4.5333,-4.5382,-4.5399,-4.5443,-4.5394,-4.5442,-4.5474,-4.5438,-4.55,-4.5508,-4.5531,-4.5604,-4.5636,-4.5613,-4.5753,-4.5707,-4.5715,-4.5718,-4.576,-4.5776,-4.5789,-4.5608,-4.5607,-4.5606,0,0,-4.5389,-4.5406,-4.5464,-4.5482,-4.5509,-4.551,-4.5524,-4.5545,-4.5549,-4.5612,-4.5585,-4.5623,-4.5688,-4.5706,-4.5723,-4.5832,-4.581,-4.5843,-4.5904,-4.5947,-4.596,-4.5971,-4.6011,-4.6025,-4.5852,-4.5852,-4.5852,0,-4.5438,-4.5505,-4.5496,-4.5547,-4.557,-4.554,-4.5599,-4.5617,-4.5653,-4.5669,-4.5642,-4.5724,-4.5737,-4.5815,-4.5842,-4.5857,-4.5872,-4.5841,-4.5959,-4.597,-4.5981,-4.6019,-4.6033,-4.5856,-4.5856,-4.5855,-4.5855,0,-4.5564,-4.5611,-4.5655,-4.5693,-4.572,-4.5775,-4.5773,-4.5801,-4.579,-4.5794,-4.5857,-4.5873,-4.5911,-4.5928,-4.5917,-4.6005,-4.599,-4.5961,-4.5914,-4.6001,-4.6036,-4.605,-4.5862,-4.586,-4.5859,-4.5858,0,0,-4.5697,-4.5731,-4.5747,-4.5765,-4.5793,-4.5829,-4.5882,-4.5921,-4.5946,-4.5972,-4.6016,-4.6073,-4.6047,-4.6068,-4.6058,-4.6096,-4.6182,-4.6063,-4.6063,-4.6086,-4.6281,-4.6303,-4.6319,-4.6168,-4.617,-4.6172,-4.6279,0,-4.5799,-4.5894,-4.5888,-4.5977,-4.602,-4.5994,-4.604,-4.6062,-4.6066,-4.6103,-4.6106,-4.6147,-4.611,-4.6123,-4.6159,-4.6164,-4.6221,-4.6156,-4.6208,-4.621,-4.6205,-4.6338,-4.6361,-4.6461,-4.6293,-4.6295,-4.6297,0,-4.5931,-4.5964,-4.6058,-4.6082,-4.6099,-4.6142,-4.6178,-4.6213,-4.6237,-4.6238,-4.6261,-4.6246,-4.6299,-4.625,-4.6323,-4.6279,-4.6299,-4.6305,-4.6309,-4.6314,-4.6259,-4.6347,-4.6492,-4.6508,-4.6318,-4.6316,-4.6315,0,-4.602,-4.6088,-4.6154,-4.6169,-4.6198,-4.6228,-4.6241,-4.6262,-4.6287,-4.6318,-4.6334,-4.6369,-4.6389,-4.6417,-4.6412,-4.6376,-4.6486,-4.6436,-4.6488,-4.6488,-4.6513,-4.6511,-4.6664,-4.6525,-4.6524,-4.6524,-4.6524,0,-4.6135,-4.6194,-4.6195,-4.6235,-4.63,-4.6292,-4.6356,-4.6365,-4.6384,-4.6425,-4.6403,-4.6442,-4.6432,-4.647,-4.6465,-4.6527,-4.6535,-4.6537,-4.6535,-4.654,-4.654,-4.6554,-4.6547,-4.6528,-4.6527,-4.6526,-4.6526,0,-4.6246,-4.6249,-4.6319,-4.6341,-4.6348,-4.6395,-4.6413,-4.645,-4.6453,-4.6506,-4.6517,-4.6522,-4.6565,-4.6563,-4.6611,-4.6608,-4.6684,-4.6674,-4.6677,-4.6675,-4.6728,-4.6723,-4.6895,-4.6918,-4.6763,-4.6764,-4.6765,0,-4.632,-4.6365,-4.6393,-4.642,-4.6436,-4.6479,-4.6505,-4.6498,-4.6525,-4.6557,-4.6591,-4.6633,-4.6666,-4.6737,-4.6744,-4.6781,-4.6772,-4.6829,-4.6777,-4.6781,-4.6774,-4.6772,-4.6777,-4.684,-4.6842,-4.6843,-4.6844,0,-4.6452,-4.6451,-4.649,-4.653,-4.6562,-4.6593,-4.662,-4.6643,-4.6639,-4.6671,-4.6717,-4.6743,-4.6794,-4.6836,-4.6872,-4.6883,-4.6863,-4.6861,-4.6875,-4.688,-4.6881,-4.6883,-4.6707,-4.6857,-4.6856,-4.6855,-4.6854,-4.6854,-4.6547,-4.6587,-4.6613,-4.6657,-4.6678,-4.6705,-4.6742,-4.6751,-4.679,-4.6832,-4.6825,-4.6876,-4.6899,-4.6946,-4.6961,-4.7,-4.698,-4.7,-4.7005,-4.701,-4.7017,-4.6874,-4.7006,-4.7006,-4.7006,-4.7005,-4.7005,0,-4.6678,-4.6695,-4.6736,-4.6777,-4.6812,-4.6792,-4.6822,-4.6852,-4.6898,-4.6922,-4.6956,-4.7009,-4.705,-4.7061,-4.71,-4.7129,-4.7121,-4.714,-4.7138,-4.7141,-4.7033,-4.7017,-4.7146,-4.7146,-4.7146,-4.7146,-4.7146,-4.7146,-4.6751,-4.6818,-4.682,-4.6897,-4.6911,-4.6964,-4.6983,-4.7007,-4.7027,-4.7088,-4.7122,-4.713,-4.7148,-4.7189,-4.7226,-4.7227,-4.7243,-4.7266,-4.7264,-4.7163,-4.7149,-4.7135,-4.7121,-4.7269,-4.7269,-4.737,-4.7371,-4.7371]}]]